sat.trackr.live / text

‹ back to catalog

STARLINK-36480

NORAD 67336 · 2026-003C

PAYLOAD ACTIVE UNKNOWN

§ Identity

Operator
Country
US
Launch date
2026-01-09
Launch site
AFETR
Launch vehicle
Mass (kg)
RCS (m²)

Purposes: comms

External: N2YO · Heavens-Above · Gunter

§ Orbital elements

Epoch: 2026-05-25T01:41:41.822016Z

Period
94.27 min
Inclination
43.0010°
Eccentricity
0.0001642
Mean motion
15.27581887 rev/d
Perigee alt
481.9 km
Apogee alt
484.2 km
Semi-major
6,861.2 km
B*
2.2366e-4
RAAN
155.8603°
Arg perigee
301.8068°
Mean anomaly
58.2623°
Rev number
2,050

§ Raw data

STARLINK-364801 67336U 26003C   26145.07062294  .00005898  00000+0  22366-3 0  99952 67336  43.0010 155.8603 0001642 301.8068  58.2623 15.27581887 20507

JSON: /api/v1/satellites/67336 · /tle

For live sub-satellite position, see the globe view (requires WebGL).

§ Visibility from observer

Set your observer location to see the next 7 days of passes ≥ 10°. The values pass through the URL so the page stays shareable.

No JS? Fill the form by hand. The geolocation button needs JavaScript.